Time,TemperatureF,DewpointF,PressureIn,WindDirection,WindDirectionDegrees,WindSpeedMPH,WindSpeedGustMPH,Humidity,HourlyPrecipIn,Conditions,Clouds,dailyrainin,SoftwareType,DateUTC
2013-10-17 00:01:00,50.0,43.4,30.07,West,281,0.0,0.0,78,0.00,FEW,FEW,0.00,WeatherDisplay:10.34,2013-10-17 04:01:00,
2013-10-17 00:02:00,50.0,43.7,30.07,West,280,0.0,0.0,79,0.00,FEW,FEW,0.00,WeatherDisplay:10.34,2013-10-17 04:02:00,
2013-10-17 00:04:00,50.0,43.7,30.07,West,280,0.0,0.0,79,0.00,FEW,FEW,0.00,WeatherDisplay:10.34,2013-10-17 04:04:00,
2013-10-17 00:07:00,50.0,43.7,30.07,WSW,239,4.0,6.0,79,0.00,BKN,BKN,0.00,WeatherDisplay:10.34,2013-10-17 04:07:00,
2013-10-17 00:12:00,50.0,43.7,30.07,WSW,258,0.0,3.0,79,0.00,BKN,BKN,0.00,WeatherDisplay:10.34,2013-10-17 04:12:00,
2013-10-17 00:13:00,50.0,43.7,30.07,WSW,258,0.0,5.0,79,0.00,BKN,BKN,0.00,WeatherDisplay:10.34,2013-10-17 04:13:00,
2013-10-17 00:18:00,50.2,44.2,30.07,WSW,250,0.0,0.0,80,0.00,BKN,BKN,0.00,WeatherDisplay:10.34,2013-10-17 04:18:00,
2013-10-17 00:23:00,50.2,44.2,30.07,NNW,334,0.0,3.0,80,0.00,BKN,BKN,0.00,WeatherDisplay:10.34,2013-10-17 04:23:00,
2013-10-17 00:28:00,50.2,44.2,30.07,West,266,0.0,5.0,80,0.00,BKN,BKN,0.00,WeatherDisplay:10.34,2013-10-17 04:28:00,
2013-10-17 00:33:00,50.4,44.7,30.07,West,262,0.0,3.0,81,0.00,BKN,BKN,0.00,WeatherDisplay:10.34,2013-10-17 04:33:00,
2013-10-17 00:38:00,50.5,44.9,30.07,West,262,0.0,0.0,81,0.00,BKN,BKN,0.00,WeatherDisplay:10.34,2013-10-17 04:38:00,
2013-10-17 00:43:00,50.5,44.9,30.07,North,2,0.0,3.0,81,0.00,BKN,BKN,0.00,WeatherDisplay:10.34,2013-10-17 04:43:00,
2013-10-17 00:48:00,50.7,45.1,30.07,SW,216,3.0,5.0,81,0.00,BKN,BKN,0.00,WeatherDisplay:10.34,2013-10-17 04:48:00,
2013-10-17 00:53:00,50.9,45.3,30.07,WSW,243,3.0,3.0,81,0.00,BKN,BKN,0.00,WeatherDisplay:10.34,2013-10-17 04:53:00,
2013-10-17 00:58:00,50.9,45.3,30.04,WSW,244,0.0,0.0,81,0.00,BKN,BKN,0.00,WeatherDisplay:10.34,2013-10-17 04:58:00,
2013-10-17 01:03:00,51.1,45.5,30.04,WNW,290,0.0,5.0,81,0.00,BKN,BKN,0.00,WeatherDisplay:10.34,2013-10-17 05:03:00,
2013-10-17 01:08:00,51.1,45.5,30.04,WNW,290,0.0,2.0,81,0.00,OVC,OVC,0.00,WeatherDisplay:10.34,2013-10-17 05:08:00,
2013-10-17 01:13:00,51.1,45.5,30.03,WNW,303,0.0,0.0,81,0.00,OVC,OVC,0.00,WeatherDisplay:10.34,2013-10-17 05:13:00,
2013-10-17 01:18:00,51.3,45.6,30.03,WNW,303,0.0,5.0,81,0.00,OVC,OVC,0.00,WeatherDisplay:10.34,2013-10-17 05:18:00,
2013-10-17 01:23:00,51.4,45.8,30.03,WNW,303,0.0,3.0,81,0.00,OVC,OVC,0.00,WeatherDisplay:10.34,2013-10-17 05:23:00,
2013-10-17 01:28:00,51.4,45.8,30.03,North,2,0.0,3.0,81,0.00,OVC,OVC,0.00,WeatherDisplay:10.34,2013-10-17 05:28:00,
2013-10-17 01:33:00,51.4,45.8,30.03,North,2,0.0,0.0,81,0.00,OVC,OVC,0.00,WeatherDisplay:10.34,2013-10-17 05:33:00,
2013-10-17 01:38:00,51.4,45.8,30.03,North,2,0.0,0.0,81,0.00,OVC,OVC,0.00,WeatherDisplay:10.34,2013-10-17 05:38:00,
2013-10-17 01:43:00,51.4,45.8,30.03,West,272,0.0,0.0,81,0.00,OVC,OVC,0.00,WeatherDisplay:10.34,2013-10-17 05:43:00,
2013-10-17 01:48:00,51.4,45.5,30.03,West,272,0.0,0.0,80,0.00,OVC,OVC,0.00,WeatherDisplay:10.34,2013-10-17 05:48:00,
2013-10-17 01:53:00,51.4,45.5,30.03,West,272,0.0,0.0,80,0.00,OVC,OVC,0.00,WeatherDisplay:10.34,2013-10-17 05:53:00,
2013-10-17 01:58:00,51.4,45.5,30.03,West,270,0.0,3.0,80,0.00,OVC,OVC,0.00,WeatherDisplay:10.34,2013-10-17 05:58:00,
2013-10-17 02:03:00,51.4,45.5,30.03,NNW,327,0.0,0.0,80,0.00,OVC,OVC,0.00,WeatherDisplay:10.34,2013-10-17 06:03:00,
2013-10-17 02:08:00,51.4,45.5,30.03,WSW,253,3.0,7.0,80,0.00,OVC,OVC,0.00,WeatherDisplay:10.34,2013-10-17 06:08:00,
2013-10-17 02:13:00,51.4,45.5,30.03,NNE,12,0.0,3.0,80,0.00,OVC,OVC,0.00,WeatherDisplay:10.34,2013-10-17 06:13:00,
2013-10-17 02:18:00,51.4,45.5,30.03,North,5,0.0,0.0,80,0.00,OVC,OVC,0.00,WeatherDisplay:10.34,2013-10-17 06:18:00,
2013-10-17 02:23:00,51.4,45.5,30.03,North,3,0.0,0.0,80,0.00,OVC,OVC,0.00,WeatherDisplay:10.34,2013-10-17 06:23:00,
2013-10-17 02:28:00,51.6,45.7,30.03,North,3,0.0,0.0,80,0.00,OVC,OVC,0.00,WeatherDisplay:10.34,2013-10-17 06:28:00,
2013-10-17 02:33:00,51.6,45.7,30.03,NNE,17,0.0,0.0,80,0.00,OVC,OVC,0.00,WeatherDisplay:10.34,2013-10-17 06:33:00,
2013-10-17 02:38:00,51.6,45.7,30.03,NNE,17,0.0,0.0,80,0.00,OVC,OVC,0.00,WeatherDisplay:10.34,2013-10-17 06:38:00,
2013-10-17 02:43:00,51.6,45.7,30.03,NNE,14,0.0,6.0,80,0.00,OVC,OVC,0.00,WeatherDisplay:10.34,2013-10-17 06:43:00,
2013-10-17 02:48:00,51.6,45.3,30.03,WNW,300,0.0,0.0,79,0.00,OVC,OVC,0.00,WeatherDisplay:10.34,2013-10-17 06:48:00,
2013-10-17 02:53:00,51.6,45.7,30.03,NW,324,0.0,0.0,80,0.00,OVC,OVC,0.00,WeatherDisplay:10.34,2013-10-17 06:53:00,
2013-10-17 02:58:00,51.6,45.7,30.03,NW,309,0.0,2.0,80,0.00,OVC,OVC,0.00,WeatherDisplay:10.34,2013-10-17 06:58:00,
2013-10-17 03:03:00,51.6,45.7,30.03,NW,309,0.0,3.0,80,0.00,OVC,OVC,0.00,WeatherDisplay:10.34,2013-10-17 07:03:00,
2013-10-17 03:08:00,51.6,45.7,30.03,NW,309,0.0,0.0,80,0.00,BKN,BKN,0.00,WeatherDisplay:10.34,2013-10-17 07:08:00,
2013-10-17 03:13:00,51.8,45.8,30.00,WNW,295,0.0,3.0,80,0.00,BKN,BKN,0.00,WeatherDisplay:10.34,2013-10-17 07:13:00,
2013-10-17 03:18:00,51.8,45.8,30.00,SW,235,0.0,0.0,80,0.00,BKN,BKN,0.00,WeatherDisplay:10.34,2013-10-17 07:18:00,
2013-10-17 03:23:00,51.8,45.8,30.00,SW,235,3.0,3.0,80,0.00,BKN,BKN,0.00,WeatherDisplay:10.34,2013-10-17 07:23:00,
2013-10-17 03:28:00,51.8,45.8,30.00,SW,235,0.0,3.0,80,0.00,BKN,BKN,0.00,WeatherDisplay:10.34,2013-10-17 07:28:00,
2013-10-17 03:34:00,51.8,45.8,30.00,West,277,0.0,5.0,80,0.00,BKN,BKN,0.00,WeatherDisplay:10.34,2013-10-17 07:34:00,
2013-10-17 03:39:00,51.8,45.8,30.00,West,271,0.0,0.0,80,0.00,BKN,BKN,0.00,WeatherDisplay:10.34,2013-10-17 07:39:00,
2013-10-17 03:44:00,51.8,46.2,30.00,West,271,0.0,0.0,81,0.00,BKN,BKN,0.00,WeatherDisplay:10.34,2013-10-17 07:44:00,